OPS 4682 DEB, 38397

Orbit data source: Space-Track

OPS 4682 DEB, 38397 is space debris in LEO originally from a launch on Sat, 03 Apr 1965 UTC launched from the Air Force Western Test Range (AFWTR). Debris objects in space refer to the collection of defunct objects orbiting the Earth. Examples of debris include non-operational satellites, rocket bodies, and fragments generated from explosions, collisions, or faulty payload assembly.

Loading next visibility...
Identifier
38397, 1965-027DA
Orbit
LEO
Country
Flag of USUS
Related business
Manufacturer
Unknown
Mission
Spacecraft
Bus & Motor
Unknown
Mass
Unknown
Launch date (UTC)
1965-04-03 (61 years ago)
Launch vehicle
Unknown
Launch site
Air Force Western Test Range (AFWTR)
Object type
Payload
Rocket body
Debris
Shape & HBR
Unknown shape, 0.1 m
Radar Cross Section
Medium (>0.1 m² and <1 m²)

Expand to show TLE details & history
Last TLE update: 19 hours ago

TLE from 19 hours ago
0 OPS 4682 DEB
1 38397U 65027DA  26235.37631719  .00000462  00000-0  15045-2 0  9994
2 38397  90.2560  19.1430 0041588  78.8840 281.6954 13.00026475671583
Epoch: 2026-08-23T09:01Z
TLE epoch observation values (Epoch: 2026-08-23T09:01:53.805Z)
Latitude
-0.00003°
Longitude
-88.00445°
Altitude
1,258.552 km
Speed
7.229 km/s
True Right ascension
01h 16m 34s
True Declination
0° 00' 00"
Sunlit
Object was in full shadow at epoch
Visualization orbit readout
Latitude
Unknown
Longitude
Unknown
Altitude
Unknown
Speed
Unknown
Apparent Right ascension
Unknown
Apparent Declination
Unknown
Sunlit
N/A
Visualization observer readout
Local Sidereal Time
19:32:19
Azimuth
Unknown
Elevation
Unknown
Doppler factor
Unknown
Orbital elements
Apogee altitude
1,290.872 km
Perigee altitude
1,227.348 km
Semi-major axis
7,637.247 km
Eccentricity
0.00416
Inclination
90.256°
RAAN
19.143°
Arg. of periapsis
78.884°
True anomaly
281.22824°
Mean anomaly
281.6954°
Eccentric anomaly
281.46187°
Mean motion
3.25191 °/min
Orbital period
110.7 mins
BSTAR
0.0015045
Loading maneuver chart data...
Computing Atmospheric mass density...
Loading historical data...
Loading historical data...
Loading historical data...
Loading historical data...
Loading historical data...
Loading historical data...
Loading historical data...

Documentation

Showing up to 5 results
|